Location: Bronschhofen
(47.4788°N, 9.0353°E)
Time: 19:36:37
(UTC+00:00)

Cosmos 1470 - Pass Details

Date: 20 May 2022
Orbit: 516 x 538 km, 82.5° (Epoch: 06 July)

Event Time Altitude Azimuth Distance (km) Brightness Sun altitude
Rises 00:31:38 0° 339° (NNW) 2,678 7.1 -20.7°
Reaches altitude 10° 00:34:04 10° 325° (NW) 1,778 5.9 -20.6°
Enters shadow 00:37:03 24° 276° (W) 1,121 4.2 -20.4°
